| time (UTC) | temp F | wind direction | speed MPH | gust MPH | rain 1hr in | rain 24hr in | rain mn in | humidity % | barometer mb |
| 20260504050516 | 58 | 221 | 2.0 | 5.0 | 0.00 | 0.00 | 0.00 | 43 | 1002.7 |
| 20260504045514 | 58 | 244 | 3.0 | 5.0 | 0.00 | 0.00 | 0.00 | 43 | 1002.9 |
| 20260504045015 | 58 | 245 | 2.0 | 4.0 | 0.00 | 0.00 | 0.00 | 43 | 1003.0 |
| 20260504044533 | 58 | 245 | 2.0 | 4.0 | 0.00 | 0.00 | 0.00 | 42 | 1003.0 |
| 20260504044015 | 57 | 245 | 2.0 | 4.0 | 0.00 | 0.00 | 0.00 | 45 | 1003.1 |
| 20260504043514 | 57 | 246 | 2.0 | 3.0 | 0.00 | 0.00 | 0.00 | 44 | 1003.2 |
| 20260504043032 | 57 | 248 | 1.0 | 3.0 | 0.00 | 0.00 | 0.00 | 43 | 1003.3 |
| 20260504042514 | 57 | 248 | 1.0 | 2.0 | 0.00 | 0.00 | 0.00 | 42 | 1003.4 |
| 20260504042015 | 57 | 248 | 0.0 | 2.0 | 0.00 | 0.00 | 0.00 | 42 | 1003.4 |
| 20260504041536 | 57 | 0 | 0.0 | 2.0 | 0.00 | 0.00 | 0.00 | 42 | 1003.4 |
| 20260504041014 | 58 | 0 | 0.0 | 2.0 | 0.00 | 0.00 | 0.00 | 42 | 1003.7 |
| 20260504040515 | 58 | 248 | 0.0 | 2.0 | 0.00 | 0.00 | 0.00 | 42 | 1003.7 |
| 20260504040033 | 58 | 248 | 1.0 | 4.0 | 0.00 | 0.00 | 0.00 | 41 | 1003.7 |
| 20260504035515 | 58 | 248 | 1.0 | 4.0 | 0.00 | 0.00 | 0.00 | 41 | 1003.8 |
| 20260504035013 | 58 | 248 | 2.0 | 6.0 | 0.00 | 0.00 | 0.00 | 40 | 1003.8 |
| 20260504034542 | 59 | 257 | 2.0 | 6.0 | 0.00 | 0.00 | 0.00 | 40 | 1003.9 |
| 20260504034013 | 59 | 264 | 2.0 | 4.0 | 0.00 | 0.00 | 0.00 | 39 | 1003.9 |
| 20260504033521 | 59 | 263 | 1.0 | 4.0 | 0.00 | 0.00 | 0.00 | 39 | 1004.0 |
| 20260504033033 | 59 | 264 | 1.0 | 4.0 | 0.00 | 0.00 | 0.00 | 38 | 1004.0 |
| 20260504032513 | 60 | 264 | 2.0 | 4.0 | 0.00 | 0.00 | 0.00 | 38 | 1004.0 |
| 20260504032017 | 60 | 264 | 1.0 | 4.0 | 0.00 | 0.00 | 0.00 | 38 | 1004.2 |
| 20260504031535 | 60 | 267 | 1.0 | 4.0 | 0.00 | 0.00 | 0.00 | 37 | 1004.2 |
| 20260504031015 | 60 | 267 | 2.0 | 4.0 | 0.00 | 0.00 | 0.00 | 37 | 1004.2 |
| 20260504030514 | 60 | 267 | 2.0 | 4.0 | 0.00 | 0.00 | 0.00 | 38 | 1004.3 |
| 20260504030039 | 60 | 268 | 2.0 | 4.0 | 0.00 | 0.00 | 0.00 | 38 | 1004.4 |
| 20260504025516 | 60 | 268 | 2.0 | 4.0 | 0.00 | 0.00 | 0.00 | 38 | 1004.3 |
| 20260504025014 | 61 | 269 | 1.0 | 3.0 | 0.00 | 0.00 | 0.00 | 38 | 1004.3 |
| 20260504024530 | 61 | 269 | 1.0 | 3.0 | 0.00 | 0.00 | 0.00 | 37 | 1004.3 |
| 20260504024017 | 61 | 268 | 1.0 | 3.0 | 0.00 | 0.00 | 0.00 | 37 | 1004.3 |
| 20260504023514 | 61 | 268 | 1.0 | 3.0 | 0.00 | 0.00 | 0.00 | 36 | 1004.2 |
| 20260504023034 | 62 | 268 | 2.0 | 6.0 | 0.00 | 0.00 | 0.00 | 36 | 1004.3 |
| 20260504022516 | 62 | 268 | 2.0 | 6.0 | 0.00 | 0.00 | 0.00 | 36 | 1004.4 |
| 20260504022014 | 62 | 267 | 3.0 | 6.0 | 0.00 | 0.00 | 0.00 | 36 | 1004.3 |
| 20260504021534 | 62 | 267 | 2.0 | 6.0 | 0.00 | 0.00 | 0.00 | 35 | 1004.4 |
| 20260504021013 | 62 | 267 | 1.0 | 6.0 | 0.00 | 0.00 | 0.00 | 36 | 1004.4 |
| 20260504020514 | 62 | 266 | 2.0 | 6.0 | 0.00 | 0.00 | 0.00 | 35 | 1004.4 |
| 20260504020038 | 62 | 269 | 2.0 | 4.0 | 0.00 | 0.00 | 0.00 | 35 | 1004.4 |
| 20260504015514 | 62 | 269 | 2.0 | 7.0 | 0.00 | 0.00 | 0.00 | 35 | 1004.4 |
| 20260504015017 | 62 | 269 | 2.0 | 7.0 | 0.00 | 0.00 | 0.00 | 35 | 1004.5 |
| 20260504014534 | 62 | 274 | 3.0 | 7.0 | 0.00 | 0.00 | 0.00 | 35 | 1004.5 |
| 20260504014015 | 62 | 296 | 3.0 | 7.0 | 0.00 | 0.00 | 0.00 | 36 | 1004.5 |
| 20260504013514 | 62 | 293 | 3.0 | 7.0 | 0.00 | 0.00 | 0.00 | 36 | 1004.4 |
| 20260504013032 | 63 | 296 | 3.0 | 7.0 | 0.00 | 0.00 | 0.00 | 35 | 1004.4 |
| 20260504012515 | 63 | 296 | 3.0 | 7.0 | 0.00 | 0.00 | 0.00 | 35 | 1004.4 |
| 20260504012013 | 63 | 292 | 3.0 | 10.0 | 0.00 | 0.00 | 0.00 | 36 | 1004.4 |
| 20260504011533 | 63 | 295 | 4.0 | 10.0 | 0.00 | 0.00 | 0.00 | 36 | 1004.4 |
| 20260504011013 | 63 | 297 | 6.0 | 10.0 | 0.00 | 0.00 | 0.00 | 35 | 1004.4 |
| 20260504010516 | 64 | 294 | 5.0 | 10.0 | 0.00 | 0.00 | 0.00 | 37 | 1004.4 |
| 20260504010040 | 64 | 306 | 5.0 | 10.0 | 0.00 | 0.00 | 0.00 | 36 | 1004.3 |
| 20260504005514 | 64 | 295 | 5.0 | 10.0 | 0.00 | 0.00 | 0.00 | 36 | 1004.4 |
| 20260504005013 | 64 | 302 | 4.0 | 10.0 | 0.00 | 0.00 | 0.00 | 37 | 1004.4 |
| 20260504004534 | 64 | 288 | 5.0 | 10.0 | 0.00 | 0.00 | 0.00 | 37 | 1004.4 |
| 20260504004015 | 65 | 285 | 6.0 | 12.0 | 0.00 | 0.00 | 0.00 | 35 | 1004.3 |
| 20260504003516 | 65 | 304 | 6.0 | 12.0 | 0.00 | 0.00 | 0.00 | 35 | 1004.2 |
| 20260504003031 | 66 | 291 | 7.0 | 12.0 | 0.00 | 0.00 | 0.00 | 35 | 1004.1 |
| 20260504002514 | 66 | 291 | 6.0 | 12.0 | 0.00 | 0.00 | 0.00 | 35 | 1004.1 |
| 20260504002015 | 66 | 284 | 6.0 | 12.0 | 0.00 | 0.00 | 0.00 | 34 | 1004.2 |
| 20260504001535 | 66 | 279 | 7.0 | 12.0 | 0.00 | 0.00 | 0.00 | 34 | 1004.2 |
| 20260504001015 | 67 | 286 | 4.0 | 12.0 | 0.00 | 0.00 | 0.00 | 34 | 1004.3 |
| 20260504000515 | 67 | 332 | 6.0 | 12.0 | 0.00 | 0.00 | 0.00 | 33 | 1004.2 |
| 20260504000034 | 67 | 279 | 6.0 | 12.0 | 0.00 | 0.00 | 0.00 | 32 | 1004.3 |
| 20260503235514 | 67 | 300 | 4.0 | 13.0 | 0.00 | 0.00 | 0.00 | 32 | 1004.3 |
| 20260503235014 | 67 | 267 | 7.0 | 13.0 | 0.00 | 0.00 | 0.00 | 31 | 1004.3 |
| 20260503234535 | 67 | 319 | 6.0 | 14.0 | 0.00 | 0.00 | 0.00 | 31 | 1004.3 |
| 20260503234014 | 67 | 336 | 7.0 | 16.0 | 0.00 | 0.00 | 0.00 | 30 | 1004.3 |
| 20260503233514 | 67 | 281 | 7.0 | 16.0 | 0.00 | 0.00 | 0.00 | 30 | 1004.3 |
| 20260503233035 | 67 | 313 | 8.0 | 16.0 | 0.00 | 0.00 | 0.00 | 29 | 1004.2 |
| 20260503232515 | 68 | 301 | 7.0 | 16.0 | 0.00 | 0.00 | 0.00 | 30 | 1004.3 |
| 20260503232014 | 68 | 304 | 9.0 | 17.0 | 0.00 | 0.00 | 0.00 | 29 | 1004.3 |
| 20260503231545 | 68 | 286 | 6.0 | 17.0 | 0.00 | 0.00 | 0.00 | 30 | 1004.4 |
| 20260503231014 | 68 | 290 | 8.0 | 17.0 | 0.00 | 0.00 | 0.00 | 29 | 1004.4 |
| 20260503230514 | 68 | 294 | 7.0 | 15.0 | 0.00 | 0.00 | 0.00 | 32 | 1004.4 |
| 20260503230034 | 68 | 317 | 7.0 | 15.0 | 0.00 | 0.00 | 0.00 | 30 | 1004.4 |
| 20260503225514 | 68 | 267 | 7.0 | 15.0 | 0.00 | 0.00 | 0.00 | 31 | 1004.5 |
| 20260503225015 | 68 | 317 | 7.0 | 15.0 | 0.00 | 0.00 | 0.00 | 30 | 1004.5 |
| 20260503224534 | 68 | 280 | 9.0 | 15.0 | 0.00 | 0.00 | 0.00 | 31 | 1004.6 |
| 20260503224014 | 68 | 281 | 5.0 | 15.0 | 0.00 | 0.00 | 0.00 | 32 | 1004.7 |
| 20260503223514 | 68 | 298 | 9.0 | 15.0 | 0.00 | 0.00 | 0.00 | 33 | 1004.5 |
| 20260503223035 | 68 | 254 | 9.0 | 15.0 | 0.00 | 0.00 | 0.00 | 33 | 1004.5 |
| 20260503222514 | 69 | 288 | 8.0 | 16.0 | 0.00 | 0.00 | 0.00 | 33 | 1004.6 |
| 20260503222016 | 68 | 325 | 8.0 | 16.0 | 0.00 | 0.00 | 0.00 | 35 | 1004.4 |
| 20260503221535 | 69 | 295 | 8.0 | 14.0 | 0.00 | 0.00 | 0.00 | 33 | 1004.4 |
| 20260503221015 | 69 | 307 | 5.0 | 15.0 | 0.00 | 0.00 | 0.00 | 36 | 1004.1 |
| 20260503220514 | 69 | 297 | 7.0 | 15.0 | 0.00 | 0.00 | 0.00 | 34 | 1004.4 |
| 20260503220038 | 69 | 321 | 6.0 | 14.0 | 0.00 | 0.00 | 0.00 | 34 | 1004.4 |
| 20260503215515 | 69 | 319 | 5.0 | 12.0 | 0.00 | 0.00 | 0.00 | 36 | 1004.4 |
| 20260503215013 | 69 | 287 | 6.0 | 12.0 | 0.00 | 0.00 | 0.00 | 35 | 1004.5 |
| 20260503214542 | 69 | 321 | 6.0 | 16.0 | 0.00 | 0.00 | 0.00 | 39 | 1004.4 |
| 20260503214014 | 68 | 303 | 7.0 | 16.0 | 0.00 | 0.00 | 0.00 | 42 | 1004.4 |
| 20260503213514 | 68 | 352 | 7.0 | 16.0 | 0.00 | 0.00 | 0.00 | 38 | 1004.4 |
| 20260503213050 | 68 | 314 | 9.0 | 15.0 | 0.00 | 0.00 | 0.00 | 36 | 1004.4 |
| 20260503212512 | 68 | 312 | 6.0 | 15.0 | 0.00 | 0.00 | 0.00 | 35 | 1004.5 |
| 20260503212012 | 68 | 339 | 5.0 | 15.0 | 0.00 | 0.00 | 0.00 | 35 | 1004.7 |
| 20260503211549 | 68 | 305 | 8.0 | 15.0 | 0.00 | 0.00 | 0.00 | 36 | 1004.6 |
| 20260503211016 | 68 | 330 | 6.0 | 19.0 | 0.00 | 0.00 | 0.00 | 34 | 1004.5 |
| 20260503210515 | 68 | 317 | 8.0 | 19.0 | 0.00 | 0.00 | 0.00 | 36 | 1004.7 |
| 20260503210035 | 68 | 288 | 7.0 | 18.0 | 0.00 | 0.00 | 0.00 | 38 | 1004.9 |
| 20260503205517 | 68 | 279 | 11.0 | 19.0 | 0.00 | 0.00 | 0.00 | 34 | 1004.6 |
| 20260503205017 | 68 | 311 | 9.0 | 19.0 | 0.00 | 0.00 | 0.00 | 33 | 1004.8 |
| 20260503204550 | 68 | 311 | 11.0 | 19.0 | 0.00 | 0.00 | 0.00 | 37 | 1004.8 |
| 20260503204016 | 69 | 290 | 7.0 | 16.0 | 0.00 | 0.00 | 0.00 | 38 | 1004.7 |
| 20260503203514 | 68 | 335 | 8.0 | 18.0 | 0.00 | 0.00 | 0.00 | 40 | 1004.8 |
| 20260503203035 | 69 | 281 | 11.0 | 18.0 | 0.00 | 0.00 | 0.00 | 42 | 1004.9 |
| 20260503202514 | 68 | 259 | 9.0 | 19.0 | 0.00 | 0.00 | 0.00 | 42 | 1004.8 |
| 20260503202014 | 68 | 310 | 9.0 | 19.0 | 0.00 | 0.00 | 0.00 | 41 | 1004.9 |
| 20260503201532 | 68 | 306 | 7.0 | 19.0 | 0.00 | 0.00 | 0.00 | 44 | 1004.9 |
| 20260503201013 | 68 | 248 | 10.0 | 19.0 | 0.00 | 0.00 | 0.00 | 41 | 1005.1 |
| 20260503200517 | 68 | 310 | 9.0 | 19.0 | 0.00 | 0.00 | 0.00 | 40 | 1005.1 |
| 20260503200034 | 68 | 297 | 6.0 | 20.0 | 0.00 | 0.00 | 0.00 | 41 | 1005.0 |
| 20260503195514 | 68 | 290 | 8.0 | 20.0 | 0.00 | 0.00 | 0.00 | 40 | 1005.1 |
| 20260503195013 | 68 | 316 | 9.0 | 22.0 | 0.00 | 0.00 | 0.00 | 41 | 1005.0 |
| 20260503194534 | 68 | 329 | 11.0 | 22.0 | 0.00 | 0.00 | 0.00 | 39 | 1005.0 |
| 20260503194014 | 68 | 310 | 6.0 | 18.0 | 0.00 | 0.00 | 0.00 | 45 | 1005.1 |
| 20260503193514 | 68 | 290 | 9.0 | 18.0 | 0.00 | 0.00 | 0.00 | 43 | 1005.1 |
| 20260503193034 | 68 | 266 | 8.0 | 20.0 | 0.00 | 0.00 | 0.00 | 43 | 1005.2 |
| 20260503192529 | 68 | 232 | 10.0 | 20.0 | 0.00 | 0.00 | 0.00 | 41 | 1005.2 |
| 20260503192014 | 68 | 304 | 6.0 | 17.0 | 0.00 | 0.00 | 0.00 | 42 | 1005.1 |
| 20260503191533 | 68 | 288 | 7.0 | 17.0 | 0.00 | 0.00 | 0.00 | 43 | 1005.2 |
| 20260503191018 | 67 | 338 | 8.0 | 17.0 | 0.00 | 0.00 | 0.00 | 40 | 1005.1 |
| 20260503190515 | 67 | 305 | 9.0 | 17.0 | 0.00 | 0.00 | 0.00 | 40 | 1005.2 |
| 20260503190033 | 68 | 277 | 5.0 | 15.0 | 0.00 | 0.00 | 0.00 | 45 | 1005.1 |
| 20260503185518 | 67 | 347 | 6.0 | 15.0 | 0.00 | 0.00 | 0.00 | 43 | 1005.1 |
| 20260503185014 | 68 | 284 | 5.0 | 13.0 | 0.00 | 0.00 | 0.00 | 42 | 1005.2 |
| 20260503184536 | 68 | 296 | 5.0 | 14.0 | 0.00 | 0.00 | 0.00 | 44 | 1005.2 |
| 20260503184018 | 67 | 272 | 7.0 | 17.0 | 0.00 | 0.00 | 0.00 | 46 | 1005.2 |
| 20260503183517 | 67 | 314 | 6.0 | 17.0 | 0.00 | 0.00 | 0.00 | 45 | 1005.3 |
| 20260503183041 | 67 | 339 | 4.0 | 18.0 | 0.00 | 0.00 | 0.00 | 43 | 1005.2 |
| 20260503182515 | 66 | 355 | 8.0 | 18.0 | 0.00 | 0.00 | 0.00 | 47 | 1005.3 |
| 20260503182014 | 66 | 312 | 6.0 | 17.0 | 0.00 | 0.00 | 0.00 | 44 | 1005.2 |
| 20260503181534 | 66 | 17 | 10.0 | 17.0 | 0.00 | 0.00 | 0.00 | 44 | 1005.4 |
| 20260503181015 | 66 | 321 | 5.0 | 14.0 | 0.00 | 0.00 | 0.00 | 46 | 1005.4 |
| 20260503180514 | 66 | 292 | 5.0 | 14.0 | 0.00 | 0.00 | 0.00 | 45 | 1005.5 |
| 20260503180035 | 66 | 323 | 6.0 | 14.0 | 0.00 | 0.00 | 0.00 | 48 | 1005.6 |
| 20260503175515 | 65 | 231 | 5.0 | 16.0 | 0.00 | 0.00 | 0.00 | 49 | 1005.5 |
| 20260503175015 | 65 | 315 | 5.0 | 16.0 | 0.00 | 0.00 | 0.00 | 48 | 1005.5 |
| 20260503174544 | 65 | 321 | 5.0 | 14.0 | 0.00 | 0.00 | 0.00 | 48 | 1005.5 |
| 20260503174014 | 65 | 345 | 9.0 | 17.0 | 0.00 | 0.00 | 0.00 | 46 | 1005.6 |
| 20260503173514 | 65 | 17 | 6.0 | 17.0 | 0.00 | 0.00 | 0.00 | 49 | 1005.7 |
| 20260503173032 | 65 | 333 | 7.0 | 17.0 | 0.00 | 0.00 | 0.00 | 46 | 1005.7 |
| 20260503172515 | 65 | 285 | 2.0 | 14.0 | 0.00 | 0.00 | 0.00 | 49 | 1005.8 |
| 20260503172014 | 64 | 343 | 2.0 | 14.0 | 0.00 | 0.00 | 0.00 | 49 | 1005.8 |
| 20260503171534 | 64 | 276 | 5.0 | 14.0 | 0.00 | 0.00 | 0.00 | 47 | 1006.0 |
| 20260503171018 | 63 | 250 | 5.0 | 10.0 | 0.00 | 0.00 | 0.00 | 51 | 1005.9 |
| 20260503170515 | 63 | 294 | 4.0 | 9.0 | 0.00 | 0.00 | 0.00 | 50 | 1005.9 |
| 20260503150516 | 60 | 220 | 5.0 | 11.0 | 0.00 | 0.00 | 0.00 | 51 | 1005.7 |
| 20260503131016 | 55 | 200 | 5.0 | 9.0 | 0.00 | 0.00 | 0.00 | 55 | 1006.2 |
| 20260503130518 | 55 | 208 | 5.0 | 13.0 | 0.00 | 0.00 | 0.00 | 55 | 1006.4 |
| 20260503110516 | 53 | 199 | 6.0 | 12.0 | 0.00 | 0.00 | 0.00 | 57 | 1005.7 |
| 20260503081545 | 55 | 207 | 7.0 | 14.0 | 0.00 | 0.00 | 0.00 | 54 | 1007.1 |
| 20260503081019 | 55 | 227 | 7.0 | 13.0 | 0.00 | 0.00 | 0.00 | 54 | 1007.2 |
| 20260503080516 | 54 | 207 | 6.0 | 14.0 | 0.00 | 0.00 | 0.00 | 54 | 1007.2 |
| 20260503072518 | 54 | 194 | 7.0 | 17.0 | 0.00 | 0.00 | 0.00 | 54 | 1008.1 |
| 20260503072017 | 54 | 227 | 7.0 | 17.0 | 0.00 | 0.00 | 0.00 | 55 | 1008.1 |
| 20260503071554 | 54 | 217 | 5.0 | 12.0 | 0.00 | 0.00 | 0.00 | 56 | 1008.1 |
| 20260503071015 | 54 | 190 | 4.0 | 10.0 | 0.00 | 0.00 | 0.00 | 55 | 1008.2 |
| 20260503070515 | 54 | 203 | 5.0 | 9.0 | 0.00 | 0.00 | 0.00 | 55 | 1008.2 |